Regional Weather Roundup
Issued by NWS

Home | Current Version | Previous Version | Text Only | Print | Product List | Glossary Off
Versions: 1 2 3 4 5 6 7 8 9 10 11 12 13 14 15 16 17 18 19 20 21 22 23 24 25 26 27 28 29 30 31 32 33 34 35 36 37 38 39 40 41 42 43 44 45 46 47 48 49 50

000
ASUS45 KBOU 280907
RWRCO

WEATHER ROUNDUP FOR COLORADO
NATIONAL WEATHER SERVICE DENVER/BOULDER CO
300 AM MDT SAT MAR 28 2015

NOTE: "FAIR" INDICATES FEW OR NO CLOUDS BELOW 12000 FEET WITH NO
SIGNIFICANT WEATHER AND/OR OBSTRUCTIONS TO VISIBILITY.

COZ001>005-013-030-031-281000-
...NORTHWEST COLORADO...

CITY           SKY/WX    TMP DP  RH WIND       PRES   REMARKS
CRAIG          CLEAR     33  28  81 CALM      30.22S
HAYDEN         CLEAR     39  27  60 E10       30.22S
MEEKER         CLEAR     39  27  62 NE8       30.24S
MOUNT WERNER   NOT AVBL
STEAMBOAT SPGS CLEAR     37  29  73 CALM      30.24S
WALDEN         CLEAR     30  25  80 SE8       30.25F WCI  23
$$

COZ006>008-011-281000-
...WEST CENTRAL VALLEYS...

CITY           SKY/WX    TMP DP  RH WIND       PRES   REMARKS
GRAND JUNCTION CLEAR     46  26  45 SE13      30.17S
MONTROSE       CLEAR     45  25  45 SE9       30.24S
EAGLE          PTCLDY    36  27  69 E3        30.29S
RIFLE          CLEAR     40  26  57 CALM      30.22S
DELTA          CLEAR     45  26  48 CALM      30.23R
NUCLA          CLEAR     41  23  48 E6        30.29S
$$

COZ017>023-064>068-281000-
...SOUTHWEST COLORADO...

CITY           SKY/WX    TMP DP  RH WIND       PRES   REMARKS
DURANGO        CLEAR     40  23  50 W3        30.26S
CORTEZ         CLEAR     31  22  69 NE9       30.25S WCI  23
PAGOSA SPRINGS CLEAR     33  23  65 CALM      30.31S
TELLURIDE      PTCLDY    37  23  57 SE6       30.39S
WOLF CREEK PAS CLEAR     32  14  47 N7        30.50F WCI  26
$$

COZ009-010-012-014-032>034-037-058>063-281000-
...CENTRAL COLORADO...

CITY           SKY/WX    TMP DP  RH WIND       PRES   REMARKS
ASPEN          PTCLDY    35  24  64 SW7       30.29F WCI  29
BUENA VISTA    CLEAR     31  24  75 W5        30.30F WCI  26
COPPER MTN     PTCLDY    34  21  60 W12G18    30.44S WCI  25
BERTHOUD PASS  FAIR      27  21  80 NW33G40   30.40F WCI   9
COTTONWOOD PAS CLEAR     41  18  38 NW9       30.36F
GUNNISON       CLEAR     30  21  69 CALM      30.36S
KREMMLING      CLEAR     30  25  80 CALM      30.29S
LEADVILLE      PTCLDY    28  18  66 NE8       30.35F WCI  20
SALIDA         CLEAR     41  25  53 CALM      30.37S
SUNLIGHT       PTCLDY    36  23  60 CALM      30.44F
WILKERSON PASS PTCLDY    32  18  55 W6        30.40F WCI  26
$$

COZ069>075-281000-
...SAN LUIS VALLEY/SANGRE DE CRISTO MOUNTAINS...

CITY           SKY/WX    TMP DP  RH WIND       PRES   REMARKS
ALAMOSA        MOCLDY    31  17  56 CALM      30.28S
LA VETA PASS   PTCLDY    37  19  48 W9        30.36F
SAGUACHE       CLEAR     37  21  52 N12       30.30F
$$

COZ035-036-038>040-281000-
...NORTHERN COLORADO FRONT RANGE...

CITY           SKY/WX    TMP DP  RH WIND       PRES   REMARKS
DENVER INTL AP PTCLDY    48  30  49 SW14      30.08F
DMNS CITY PARK   N/A     50  27  40 S6G14     30.08F
AURORA         CLEAR     47  28  47 SW13      30.10F
FRONT RANGE AP CLEAR     52  32  46 SW14      30.09F
ERIE MUNI ARPT CLEAR     49  29  47 SW7       30.07F
BOULDER MUN AP CLEAR     54  28  37 SW6       30.07F
CENTENNIAL     CLEAR     50  27  40 W12       30.11F
BROOMFIELD     CLEAR     55  27  33 W14       30.10S
FORT COLLINS   CLEAR     48  27  43 NE6       30.07F
LONGMONT       CLEAR     51  30  43 W7        30.08F
$$

COZ041-046-047-076>085-087-088-281000-
...PIKES PEAK/PALMER DIVIDE AND SOUTHERN FOOTHILLS...

CITY           SKY/WX    TMP DP  RH WIND       PRES   REMARKS
COLO. SPRINGS  CLEAR     47  24  40 CALM      30.15F
A. F. ACADEMY  CLEAR     45  21  37 W9G18     30.16F
ELLICOTT       CLEAR    N/A N/A N/A NE6       30.13F
FALCON         CLEAR     41  23  50 NW8       30.18F
FORT CARSON    CLEAR     41  27  57 NW2       30.12F
LIMON          CLEAR     41  31  67 NW7       30.10S
MONUMENT HILL  CLEAR     41  23  48 SW8       30.17F
TRINIDAD       CLEAR     45  30  55 W17       30.15F
$$

COZ042>045-048>051-090-091-281000-
...NORTHEAST COLORADO...

CITY           SKY/WX    TMP DP  RH WIND       PRES   REMARKS
GREELEY ARPT   CLEAR     43  25  49 N3        30.04F
AKRON          CLEAR     40  30  67 W10       30.03F
BURLINGTON     CLEAR     42  33  70 W10       30.02F
WRAY           PTCLDY    41  33  73 W8        30.00F
STERLING       CLEAR     36  30  80 SW5       30.01F
HOLYOKE        PTCLDY    41  32  70 W9        30.00S
FORT MORGAN    CLEAR     42  28  57 W9        30.04F
$$

COZ086-089-092>099-281000-
...SOUTHEAST COLORADO...

CITY           SKY/WX    TMP DP  RH WIND       PRES   REMARKS
PUEBLO         CLEAR     41  32  70 W8        30.10F
LA JUNTA       CLEAR     48  34  58 W18       30.06F
LAMAR          CLEAR     44  33  65 S9        30.02F
SPRINGFIELD      N/A     49  31  49 W13       30.05F
$$



USA.gov is the U.S. government's official web portal to all federal, state and local government web resources and services.